Weather History for Lee's Summit, MO

Change the Weather History Date:

Tuesday, July 30, 2013

  Actual Average (KMKC) Record (KMKC)
Temperature  
Mean Temperature 76 °F -  
Max Temperature 84 °F 87 °F 104 °F (1999)
Min Temperature 71 °F 70 °F 66 °F (1997)
Cooling Degree Days 12    
Growing Degree Days 26 (Base 50)    
Moisture  
Dew Point 70 °F    
Average Humidity 86    
Maximum Humidity 96    
Minimum Humidity 65    
Precipitation  
Precipitation 0.21 in - - ()
Sea Level Pressure  
Sea Level Pressure 30.01 in    
Wind  
Wind Speed 5 mph (East)    
Max Wind Speed 8 mph    
Max Gust Speed -    
Visibility 8 miles    
Events Rain    
Averages and records for this station are not official NWS values.
T = Trace of Precipitation, MM = Missing Value Source: NWS Daily Summary

Daily Weather History Graph

Daily Weather History Graph

Search for Another Location

Airport:

Trip Planner

Search our weather history database for the weather conditions in past years. The results will help you decide how hot, cold, wet, or windy it might be!

Date:

Astronomy

Jul. 30, 2013 Rise Set
Actual Time 6:16 AM CDT 8:30 PM CDT
Civil Twilight 5:46 AM CDT 9:00 PM CDT
Nautical Twilight 5:10 AM CDT 9:36 PM CDT
Astronomical Twilight 4:29 AM CDT 10:16 PM CDT
Moon 12:34 AM CDT (7/30) 2:51 PM CDT (7/30)
Length of Visible Light 15h 13m
Length of Day
14h 13m
Last Quarter, 41% of the Moon is Illuminated
Jul 30
Last Quarter
Aug 6
New
Aug 14
First Quarter
Aug 20
Full
Aug 28
Last Quarter

Hourly Weather History & Observations

Time (CDT) Temp. Heat Index Dew Point Humidity Pressure Visibility Wind Dir Wind Speed Gust Speed Precip Events Conditions
12:11 AM 71.6 °F - 69.8 °F 94% 30.01 in 7.0 mi ESE 4.6 mph - N/A   Overcast
12:30 AM 71.6 °F - 69.8 °F 94% 30.00 in 7.0 mi ESE 4.6 mph - N/A   Overcast
12:53 AM 71.1 °F - 70.0 °F 96% 29.99 in 7.0 mi ESE 4.6 mph - N/A   Overcast
1:53 AM 72.0 °F - 70.0 °F 93% 29.99 in 6.0 mi SE 4.6 mph - N/A   Overcast
2:53 AM 72.0 °F - 70.0 °F 93% 29.97 in 5.0 mi ESE 3.5 mph - N/A   Overcast
3:53 AM 72.0 °F - 70.0 °F 93% 29.98 in 4.0 mi Calm Calm - N/A   Overcast
4:16 AM 71.6 °F - 69.8 °F 94% 30.00 in 6.0 mi SSE 5.8 mph - N/A   Overcast
4:39 AM 71.6 °F - 69.8 °F 94% 30.00 in 6.0 mi South 5.8 mph - N/A   Mostly Cloudy
4:46 AM 71.6 °F - 69.8 °F 94% 30.00 in 5.0 mi South 6.9 mph - 0.01 in Rain Rain
4:53 AM 72.0 °F - 70.0 °F 93% 29.98 in 7.0 mi South 8.1 mph - 0.01 in Rain Light Rain
5:27 AM 71.6 °F - 69.8 °F 94% 30.00 in 2.5 mi South 6.9 mph - 0.09 in Rain Heavy Rain
5:36 AM 71.6 °F - 69.8 °F 94% 30.00 in 5.0 mi South 3.5 mph - 0.10 in Rain Light Rain
5:48 AM 71.6 °F - 69.8 °F 94% 30.00 in 2.5 mi South 6.9 mph - 0.19 in Rain Heavy Rain
5:49 AM 72.0 °F - 69.1 °F 91% 29.98 in 2.5 mi South 6.9 mph - 0.19 in Rain Light Rain
5:54 AM 71.6 °F - 69.8 °F 94% 30.00 in 7.0 mi South 6.9 mph - 0.00 in Rain Light Rain
6:53 AM 72.0 °F - 69.1 °F 91% 29.99 in 10.0 mi South 5.8 mph - 0.00 in   Overcast
7:23 AM 71.6 °F - 69.8 °F 94% 30.01 in 10.0 mi SSE 3.5 mph - N/A   Overcast
7:32 AM 71.6 °F - 69.8 °F 94% 30.01 in 10.0 mi SSE 4.6 mph - N/A   Overcast
7:40 AM 71.6 °F - 69.8 °F 94% 30.01 in 10.0 mi SSE 4.6 mph - N/A   Overcast
7:53 AM 72.0 °F - 69.1 °F 91% 30.00 in 10.0 mi SSE 3.5 mph - N/A   Overcast
8:44 AM 71.6 °F - 69.8 °F 94% 30.02 in 9.0 mi Calm Calm - 0.01 in   Overcast
8:53 AM 72.0 °F - 70.0 °F 93% 30.00 in 9.0 mi Calm Calm - 0.01 in   Overcast
9:53 AM 73.0 °F - 70.0 °F 90% 30.00 in 5.0 mi Calm Calm - 0.00 in   Overcast
10:53 AM 73.9 °F - 72.0 °F 93% 30.01 in 10.0 mi Calm Calm - N/A   Overcast
11:20 AM 75.2 °F - 71.6 °F 89% 30.02 in 10.0 mi Calm Calm - N/A   Overcast
11:53 AM 77.0 °F - 72.0 °F 84% 30.00 in 10.0 mi Calm Calm - N/A   Overcast
12:13 PM 78.8 °F - 71.6 °F 78% 30.02 in 10.0 mi NNW 5.8 mph - N/A   Overcast
12:53 PM 78.1 °F - 71.1 °F 79% 30.00 in 10.0 mi North 5.8 mph - N/A   Overcast
1:53 PM 78.1 °F - 71.1 °F 79% 29.99 in 10.0 mi NE 5.8 mph - N/A   Overcast
2:05 PM 78.8 °F - 71.6 °F 78% 30.02 in 10.0 mi NE 5.8 mph - N/A   Overcast
2:18 PM 78.8 °F - 71.6 °F 78% 30.02 in 10.0 mi NE 5.8 mph - N/A   Overcast
2:28 PM 78.8 °F - 71.6 °F 78% 30.02 in 10.0 mi NE 4.6 mph - N/A   Overcast
2:46 PM 78.8 °F - 71.6 °F 78% 30.02 in 10.0 mi NNE 5.8 mph - N/A   Overcast
2:53 PM 79.0 °F - 71.1 °F 77% 29.99 in 10.0 mi NNE 5.8 mph - N/A   Overcast
3:02 PM 80.6 °F 84.6 °F 71.6 °F 74% 30.01 in 10.0 mi NE 5.8 mph - N/A   Overcast
3:53 PM 82.0 °F 86.3 °F 71.1 °F 69% 29.99 in 10.0 mi Variable 5.8 mph - N/A   Overcast
4:53 PM 82.9 °F 87.0 °F 70.0 °F 65% 29.99 in 10.0 mi NNE 8.1 mph - N/A   Mostly Cloudy
5:53 PM 81.0 °F 84.9 °F 71.1 °F 72% 29.99 in 10.0 mi NNE 6.9 mph - N/A   Mostly Cloudy
6:12 PM 80.6 °F 84.6 °F 71.6 °F 74% 30.02 in 10.0 mi North 8.1 mph - N/A   Overcast
6:25 PM 80.6 °F 84.6 °F 71.6 °F 74% 30.01 in 10.0 mi North 8.1 mph - N/A   Overcast
6:53 PM 80.1 °F 83.6 °F 71.1 °F 74% 29.99 in 10.0 mi North 6.9 mph - N/A   Scattered Clouds
7:53 PM 78.1 °F - 71.1 °F 79% 29.99 in 10.0 mi NE 8.1 mph - N/A   Scattered Clouds
8:08 PM 78.8 °F - 71.6 °F 78% 30.02 in 10.0 mi NE 3.5 mph - N/A   Mostly Cloudy
8:31 PM 77.0 °F - 69.8 °F 78% 30.02 in 10.0 mi NNE 6.9 mph - N/A   Scattered Clouds
8:53 PM 75.9 °F - 70.0 °F 82% 30.01 in 10.0 mi North 5.8 mph - N/A   Clear
9:53 PM 75.0 °F - 70.0 °F 84% 30.04 in 10.0 mi North 6.9 mph - N/A   Overcast
10:53 PM 75.0 °F - 70.0 °F 84% 30.05 in 10.0 mi NNE 5.8 mph - N/A   Overcast
11:53 PM 73.9 °F - 70.0 °F 87% 30.06 in 10.0 mi NNE 5.8 mph - N/A   Overcast